| time (UTC) | temp F | wind direction | speed knots | gust knots | rain 1hr in | rain 24hr in | rain mn in | humidity % | barometer mb |
| 20260506103040 | 59 | 316 | 3.5 | 7.8 | 0.00 | 0.00 | 0.00 | 91 | 1007.8 |
| 20260506102538 | 60 | 355 | 1.7 | 7.0 | 0.00 | 0.00 | 0.00 | 91 | 1007.7 |
| 20260506102038 | 60 | 360 | 3.5 | 8.7 | 0.00 | 0.00 | 0.00 | 91 | 1007.4 |
| 20260506101537 | 60 | 355 | 4.3 | 8.7 | 0.00 | 0.00 | 0.00 | 90 | 1007.3 |
| 20260506101037 | 60 | 13 | 4.3 | 7.0 | 0.00 | 0.00 | 0.00 | 90 | 1007.4 |
| 20260506100535 | 61 | 360 | 0.9 | 6.1 | 0.00 | 0.00 | 0.00 | 90 | 1007.5 |
| 20260506100033 | 61 | 355 | 1.7 | 6.1 | 0.00 | 0.00 | 0.00 | 90 | 1007.4 |
| 20260506095533 | 61 | 360 | 1.7 | 7.8 | 0.00 | 0.00 | 0.00 | 90 | 1007.2 |
| 20260506095031 | 61 | 355 | 2.6 | 7.8 | 0.00 | 0.00 | 0.00 | 90 | 1007.3 |
| 20260506094531 | 62 | 336 | 2.6 | 6.1 | 0.00 | 0.00 | 0.00 | 90 | 1007.2 |
| 20260506094029 | 62 | 360 | 0.9 | 5.2 | 0.00 | 0.00 | 0.00 | 90 | 1007.2 |
| 20260506093529 | 62 | 355 | 1.7 | 7.0 | 0.00 | 0.00 | 0.00 | 90 | 1007.1 |
| 20260506093027 | 62 | 47 | 1.7 | 7.0 | 0.00 | 0.00 | 0.00 | 89 | 1006.9 |
| 20260506092529 | 62 | 48 | 1.7 | 8.7 | 0.00 | 0.00 | 0.00 | 89 | 1006.8 |
| 20260506092026 | 63 | 49 | 3.5 | 8.7 | 0.00 | 0.00 | 0.00 | 88 | 1006.8 |
| 20260506091525 | 63 | 20 | 2.6 | 7.8 | 0.00 | 0.00 | 0.00 | 88 | 1006.8 |
| 20260506091024 | 63 | 292 | 3.5 | 7.8 | 0.00 | 0.00 | 0.00 | 87 | 1006.7 |
| 20260506090522 | 63 | 53 | 4.3 | 9.6 | 0.00 | 0.00 | 0.00 | 87 | 1006.7 |
| 20260506090021 | 64 | 37 | 4.3 | 9.6 | 0.00 | 0.00 | 0.00 | 87 | 1006.7 |
| 20260506085520 | 64 | 44 | 5.2 | 9.6 | 0.00 | 0.00 | 0.00 | 87 | 1006.6 |
| 20260506085019 | 65 | 36 | 3.5 | 9.6 | 0.00 | 0.00 | 0.00 | 87 | 1006.7 |
| 20260506084518 | 65 | 49 | 2.6 | 7.8 | 0.00 | 0.00 | 0.00 | 86 | 1006.7 |
| 20260506084017 | 65 | 335 | 3.5 | 8.7 | 0.00 | 0.00 | 0.00 | 86 | 1006.7 |
| 20260506083516 | 66 | 40 | 3.5 | 10.4 | 0.00 | 0.00 | 0.00 | 86 | 1006.7 |
| 20260506083014 | 67 | 46 | 5.2 | 10.4 | 0.00 | 0.00 | 0.00 | 86 | 1006.5 |
| 20260506082512 | 67 | 50 | 4.3 | 7.8 | 0.00 | 0.00 | 0.00 | 86 | 1006.5 |
| 20260506082011 | 68 | 355 | 2.6 | 5.2 | 0.00 | 0.00 | 0.00 | 86 | 1006.4 |
| 20260506081511 | 68 | 355 | 0.9 | 7.8 | 0.00 | 0.00 | 0.00 | 86 | 1006.6 |
| 20260506081010 | 68 | 355 | 2.6 | 7.8 | 0.00 | 0.00 | 0.00 | 86 | 1006.4 |
| 20260506080509 | 68 | 355 | 1.7 | 6.1 | 0.00 | 0.00 | 0.00 | 86 | 1006.4 |
| 20260506073505 | 70 | 336 | 0.0 | 1.7 | 0.00 | 0.00 | 0.00 | 85 | 1006.5 |
| 20260506073004 | 70 | 336 | 0.0 | 3.5 | 0.00 | 0.00 | 0.00 | 84 | 1006.6 |
| 20260506072503 | 70 | 336 | 0.0 | 3.5 | 0.00 | 0.00 | 0.00 | 84 | 1006.6 |
| 20260506072006 | 70 | 337 | 0.9 | 6.1 | 0.00 | 0.00 | 0.00 | 84 | 1006.6 |
| 20260506071502 | 70 | 337 | 0.9 | 6.1 | 0.00 | 0.00 | 0.00 | 84 | 1006.6 |
| 20260506071001 | 71 | 355 | 0.0 | 5.2 | 0.00 | 0.00 | 0.00 | 83 | 1006.5 |
| 20260506070602 | 71 | 355 | 2.6 | 7.0 | 0.00 | 0.00 | 0.00 | 83 | 1006.5 |
| 20260506062050 | 75 | 218 | 0.0 | 1.7 | 0.00 | 0.00 | 0.00 | 89 | 1006.3 |
| 20260506061550 | 75 | 218 | 0.0 | 0.9 | 0.00 | 0.00 | 0.00 | 89 | 1006.3 |
| 20260506061051 | 75 | 218 | 0.0 | 1.7 | 0.00 | 0.00 | 0.00 | 89 | 1006.4 |
| 20260506060548 | 75 | 218 | 0.0 | 1.7 | 0.00 | 0.00 | 0.00 | 88 | 1006.4 |
| 20260506051040 | 76 | 218 | 0.0 | 0.0 | 0.00 | 0.00 | 0.00 | 86 | 1005.9 |
| 20260506050543 | 76 | 218 | 0.0 | 0.0 | 0.00 | 0.00 | 0.00 | 86 | 1005.8 |
| 20260506045038 | 77 | 218 | 0.9 | 3.5 | 0.00 | 0.00 | 0.00 | 86 | 1005.7 |
| 20260506044544 | 77 | 218 | 0.9 | 4.3 | 0.00 | 0.00 | 0.00 | 86 | 1005.7 |
| 20260506044038 | 77 | 218 | 0.9 | 4.3 | 0.00 | 0.00 | 0.00 | 86 | 1005.7 |
| 20260506043538 | 77 | 218 | 0.9 | 8.7 | 0.00 | 0.00 | 0.00 | 85 | 1005.7 |
| 20260506043037 | 77 | 218 | 2.6 | 8.7 | 0.00 | 0.00 | 0.00 | 85 | 1005.7 |
| 20260506042538 | 77 | 217 | 1.7 | 7.0 | 0.00 | 0.00 | 0.00 | 85 | 1005.5 |
| 20260506042038 | 77 | 209 | 2.6 | 7.0 | 0.00 | 0.00 | 0.00 | 85 | 1005.6 |
| 20260506041538 | 77 | 209 | 0.9 | 7.8 | 0.00 | 0.00 | 0.00 | 85 | 1005.5 |
| 20260506041037 | 77 | 209 | 2.6 | 7.8 | 0.00 | 0.00 | 0.00 | 85 | 1005.3 |
| 20260506040538 | 77 | 216 | 1.7 | 9.6 | 0.00 | 0.00 | 0.00 | 84 | 1005.2 |
| 20260506040037 | 77 | 216 | 1.7 | 10.4 | 0.00 | 0.00 | 0.00 | 84 | 1005.1 |
| 20260506035537 | 77 | 217 | 4.3 | 10.4 | 0.00 | 0.00 | 0.00 | 84 | 1005.1 |
| 20260506035037 | 77 | 229 | 3.5 | 9.6 | 0.00 | 0.00 | 0.00 | 84 | 1005.1 |
| 20260506034539 | 77 | 211 | 3.5 | 9.6 | 0.00 | 0.00 | 0.00 | 84 | 1005.1 |
| 20260506034036 | 77 | 215 | 4.3 | 8.7 | 0.00 | 0.00 | 0.00 | 84 | 1005.1 |
| 20260506033536 | 77 | 184 | 3.5 | 7.0 | 0.00 | 0.00 | 0.00 | 83 | 1004.8 |
| 20260506033038 | 77 | 184 | 2.6 | 6.1 | 0.00 | 0.00 | 0.00 | 83 | 1004.8 |
| 20260506032537 | 77 | 184 | 2.6 | 7.0 | 0.00 | 0.00 | 0.00 | 83 | 1004.7 |
| 20260506032038 | 77 | 184 | 3.5 | 7.0 | 0.00 | 0.00 | 0.00 | 83 | 1004.5 |
| 20260506031537 | 78 | 184 | 3.5 | 7.8 | 0.00 | 0.00 | 0.00 | 82 | 1004.3 |
| 20260506031036 | 78 | 184 | 2.6 | 7.8 | 0.00 | 0.00 | 0.00 | 82 | 1004.2 |
| 20260506030535 | 78 | 184 | 1.7 | 6.1 | 0.00 | 0.00 | 0.00 | 82 | 1004.3 |
| 20260506030055 | 78 | 183 | 2.6 | 6.1 | 0.00 | 0.00 | 0.00 | 82 | 1004.1 |
| 20260506025535 | 78 | 184 | 0.9 | 7.0 | 0.00 | 0.00 | 0.00 | 82 | 1004.1 |
| 20260506025036 | 78 | 183 | 2.6 | 7.0 | 0.00 | 0.00 | 0.00 | 82 | 1003.8 |
| 20260506024547 | 78 | 183 | 2.6 | 8.7 | 0.00 | 0.00 | 0.00 | 82 | 1003.7 |
| 20260506024035 | 78 | 182 | 3.5 | 8.7 | 0.00 | 0.00 | 0.00 | 81 | 1003.7 |
| 20260506023535 | 78 | 182 | 2.6 | 7.8 | 0.00 | 0.00 | 0.00 | 81 | 1003.6 |
| 20260506023035 | 78 | 180 | 3.5 | 7.8 | 0.00 | 0.00 | 0.00 | 81 | 1003.4 |
| 20260506022534 | 78 | 180 | 2.6 | 8.7 | 0.00 | 0.00 | 0.00 | 81 | 1003.4 |
| 20260506022034 | 78 | 180 | 2.6 | 8.7 | 0.00 | 0.00 | 0.00 | 80 | 1003.4 |
| 20260506021534 | 78 | 173 | 3.5 | 7.8 | 0.00 | 0.00 | 0.00 | 80 | 1003.4 |
| 20260506021034 | 79 | 172 | 2.6 | 7.8 | 0.00 | 0.00 | 0.00 | 80 | 1003.5 |
| 20260506020535 | 79 | 172 | 2.6 | 8.7 | 0.00 | 0.00 | 0.00 | 80 | 1003.4 |
| 20260506020034 | 79 | 172 | 3.5 | 8.7 | 0.00 | 0.00 | 0.00 | 80 | 1003.4 |
| 20260506015536 | 79 | 169 | 3.5 | 8.7 | 0.00 | 0.00 | 0.00 | 79 | 1003.1 |
| 20260506015034 | 79 | 184 | 3.5 | 7.0 | 0.00 | 0.00 | 0.00 | 79 | 1003.1 |
| 20260506014543 | 79 | 182 | 3.5 | 7.0 | 0.00 | 0.00 | 0.00 | 78 | 1003.2 |
| 20260506014035 | 80 | 186 | 2.6 | 5.2 | 0.00 | 0.00 | 0.00 | 78 | 1003.2 |
| 20260506013535 | 80 | 186 | 2.6 | 5.2 | 0.00 | 0.00 | 0.00 | 77 | 1003.2 |
| 20260506013032 | 80 | 189 | 1.7 | 7.8 | 0.00 | 0.00 | 0.00 | 77 | 1003.1 |
| 20260506012532 | 80 | 189 | 3.5 | 7.8 | 0.00 | 0.00 | 0.00 | 76 | 1003.2 |
| 20260506012033 | 80 | 208 | 2.6 | 7.0 | 0.00 | 0.00 | 0.00 | 76 | 1003.1 |
| 20260506011537 | 80 | 211 | 3.5 | 7.8 | 0.00 | 0.00 | 0.00 | 75 | 1003.2 |
| 20260506011035 | 81 | 213 | 4.3 | 7.8 | 0.00 | 0.00 | 0.00 | 75 | 1003.2 |
| 20260506010534 | 81 | 215 | 3.5 | 9.6 | 0.00 | 0.00 | 0.00 | 75 | 1003.2 |
| 20260506010032 | 81 | 217 | 3.5 | 10.4 | 0.00 | 0.00 | 0.00 | 74 | 1003.1 |
| 20260506005532 | 81 | 198 | 5.2 | 10.4 | 0.00 | 0.00 | 0.00 | 74 | 1003.1 |
| 20260506005031 | 81 | 207 | 3.5 | 10.4 | 0.00 | 0.00 | 0.00 | 74 | 1003.0 |
| 20260506004544 | 81 | 213 | 4.3 | 10.4 | 0.00 | 0.00 | 0.00 | 74 | 1002.9 |
| 20260506004031 | 81 | 207 | 5.2 | 10.4 | 0.00 | 0.00 | 0.00 | 74 | 1002.9 |
| 20260506003532 | 81 | 215 | 1.7 | 12.2 | 0.00 | 0.00 | 0.00 | 74 | 1002.8 |
| 20260506003038 | 81 | 216 | 7.0 | 12.2 | 0.00 | 0.00 | 0.00 | 73 | 1002.8 |
| 20260506002530 | 81 | 194 | 3.5 | 11.3 | 0.00 | 0.00 | 0.00 | 73 | 1002.7 |
| 20260506002031 | 82 | 230 | 6.1 | 12.2 | 0.00 | 0.00 | 0.00 | 73 | 1002.7 |
| 20260506001534 | 82 | 187 | 5.2 | 12.2 | 0.00 | 0.00 | 0.00 | 73 | 1002.6 |
| 20260506001031 | 82 | 178 | 7.0 | 15.6 | 0.00 | 0.00 | 0.00 | 73 | 1002.7 |
| 20260506000531 | 82 | 231 | 7.0 | 15.6 | 0.00 | 0.00 | 0.00 | 72 | 1002.7 |
| 20260506000030 | 82 | 204 | 6.1 | 12.2 | 0.00 | 0.00 | 0.00 | 72 | 1002.8 |
| 20260505235530 | 82 | 192 | 5.2 | 12.2 | 0.00 | 0.00 | 0.00 | 72 | 1002.8 |
| 20260505235030 | 82 | 215 | 5.2 | 11.3 | 0.00 | 0.00 | 0.00 | 72 | 1002.8 |
| 20260505234531 | 83 | 177 | 5.2 | 12.2 | 0.00 | 0.00 | 0.00 | 72 | 1002.7 |
| 20260505234029 | 82 | 205 | 5.2 | 13.9 | 0.00 | 0.00 | 0.00 | 72 | 1002.9 |
| 20260505233530 | 83 | 192 | 6.1 | 13.9 | 0.00 | 0.00 | 0.00 | 71 | 1002.8 |
| 20260505233029 | 83 | 207 | 7.0 | 17.4 | 0.00 | 0.00 | 0.00 | 71 | 1002.8 |
| 20260505232528 | 83 | 231 | 7.0 | 17.4 | 0.00 | 0.00 | 0.00 | 72 | 1002.6 |
| 20260505232028 | 83 | 215 | 6.1 | 12.2 | 0.00 | 0.00 | 0.00 | 72 | 1002.5 |
| 20260505231529 | 82 | 208 | 5.2 | 13.0 | 0.00 | 0.00 | 0.00 | 72 | 1002.4 |
| 20260505231027 | 82 | 174 | 7.0 | 16.5 | 0.00 | 0.00 | 0.00 | 72 | 1002.4 |
| 20260505230526 | 82 | 191 | 6.1 | 16.5 | 0.00 | 0.00 | 0.00 | 72 | 1002.5 |
| 20260505230039 | 82 | 218 | 7.0 | 13.9 | 0.00 | 0.00 | 0.00 | 72 | 1002.5 |
| 20260505225526 | 82 | 207 | 7.0 | 16.5 | 0.00 | 0.00 | 0.00 | 71 | 1002.4 |
| 20260505225028 | 82 | 165 | 7.8 | 20.0 | 0.00 | 0.00 | 0.00 | 71 | 1002.4 |
| 20260505224532 | 82 | 165 | 6.1 | 20.0 | 0.00 | 0.00 | 0.00 | 72 | 1002.5 |
| 20260505224026 | 82 | 218 | 7.8 | 20.0 | 0.00 | 0.00 | 0.00 | 72 | 1002.5 |
| 20260505223525 | 82 | 242 | 7.8 | 18.2 | 0.00 | 0.00 | 0.00 | 71 | 1002.6 |
| 20260505223024 | 82 | 236 | 7.8 | 18.2 | 0.00 | 0.00 | 0.00 | 71 | 1002.5 |
| 20260505222524 | 83 | 194 | 7.0 | 17.4 | 0.00 | 0.00 | 0.00 | 71 | 1002.5 |
| 20260505222024 | 83 | 206 | 7.8 | 20.9 | 0.00 | 0.00 | 0.00 | 71 | 1002.4 |
| 20260505221524 | 82 | 207 | 8.7 | 20.9 | 0.00 | 0.00 | 0.00 | 71 | 1002.2 |
| 20260505221023 | 82 | 173 | 4.3 | 20.0 | 0.00 | 0.00 | 0.00 | 72 | 1002.2 |
| 20260505220523 | 82 | 198 | 9.6 | 20.0 | 0.00 | 0.00 | 0.00 | 71 | 1002.2 |
| 20260505220024 | 83 | 187 | 6.1 | 17.4 | 0.00 | 0.00 | 0.00 | 71 | 1002.4 |
| 20260505215524 | 83 | 213 | 6.1 | 18.2 | 0.00 | 0.00 | 0.00 | 71 | 1002.3 |
| 20260505215025 | 83 | 219 | 7.8 | 18.2 | 0.00 | 0.00 | 0.00 | 71 | 1002.4 |
| 20260505214522 | 83 | 191 | 7.8 | 18.2 | 0.00 | 0.00 | 0.00 | 71 | 1002.5 |
| 20260505214022 | 83 | 211 | 9.6 | 18.2 | 0.00 | 0.00 | 0.00 | 70 | 1002.5 |
| 20260505213524 | 83 | 213 | 7.0 | 17.4 | 0.00 | 0.00 | 0.00 | 70 | 1002.6 |
| 20260505213019 | 83 | 198 | 6.1 | 16.5 | 0.00 | 0.00 | 0.00 | 70 | 1002.5 |
| 20260505212519 | 83 | 209 | 7.8 | 17.4 | 0.00 | 0.00 | 0.00 | 69 | 1002.8 |
| 20260505212020 | 84 | 175 | 8.7 | 17.4 | 0.00 | 0.00 | 0.00 | 69 | 1002.8 |
| 20260505211521 | 83 | 233 | 5.2 | 15.6 | 0.00 | 0.00 | 0.00 | 70 | 1002.8 |
| 20260505211017 | 83 | 174 | 6.1 | 16.5 | 0.00 | 0.00 | 0.00 | 70 | 1003.0 |
| 20260505210518 | 83 | 205 | 7.0 | 18.2 | 0.00 | 0.00 | 0.00 | 70 | 1003.0 |
| 20260505210016 | 83 | 194 | 11.3 | 18.2 | 0.00 | 0.00 | 0.00 | 69 | 1003.1 |
| 20260505205515 | 83 | 223 | 4.3 | 15.6 | 0.00 | 0.00 | 0.00 | 71 | 1003.2 |
| 20260505205015 | 82 | 180 | 6.1 | 16.5 | 0.00 | 0.00 | 0.00 | 71 | 1003.4 |
| 20260505204515 | 82 | 211 | 7.0 | 16.5 | 0.00 | 0.00 | 0.00 | 71 | 1003.4 |
| 20260505204013 | 82 | 175 | 4.3 | 12.2 | 0.00 | 0.00 | 0.00 | 72 | 1003.5 |
| 20260505203513 | 82 | 205 | 6.1 | 13.9 | 0.00 | 0.00 | 0.00 | 71 | 1003.5 |
| 20260505203023 | 82 | 220 | 7.8 | 16.5 | 0.00 | 0.00 | 0.00 | 71 | 1003.6 |
| 20260505202512 | 83 | 221 | 8.7 | 16.5 | 0.00 | 0.00 | 0.00 | 71 | 1003.6 |
| 20260505202012 | 82 | 225 | 7.0 | 13.9 | 0.00 | 0.00 | 0.00 | 71 | 1003.5 |
| 20260505201511 | 83 | 240 | 8.7 | 15.6 | 0.00 | 0.00 | 0.00 | 71 | 1003.5 |
| 20260505201010 | 82 | 205 | 4.3 | 20.9 | 0.00 | 0.00 | 0.00 | 73 | 1003.4 |
| 20260505200510 | 82 | 185 | 7.0 | 20.9 | 0.00 | 0.00 | 0.00 | 72 | 1003.4 |
| 20260505200008 | 82 | 176 | 9.6 | 17.4 | 0.00 | 0.00 | 0.00 | 71 | 1003.3 |
| 20260505195511 | 82 | 177 | 7.8 | 20.9 | 0.00 | 0.00 | 0.00 | 72 | 1003.4 |
| 20260505195007 | 82 | 218 | 7.0 | 20.9 | 0.00 | 0.00 | 0.00 | 72 | 1003.3 |
| 20260505194506 | 82 | 184 | 10.4 | 19.1 | 0.00 | 0.00 | 0.00 | 72 | 1003.5 |
| 20260505194006 | 81 | 217 | 6.1 | 17.4 | 0.00 | 0.00 | 0.00 | 73 | 1003.6 |
| 20260505193504 | 81 | 196 | 8.7 | 20.9 | 0.00 | 0.00 | 0.00 | 73 | 1003.7 |
| 20260505193002 | 81 | 208 | 10.4 | 20.9 | 0.00 | 0.00 | 0.00 | 72 | 1003.9 |
| 20260505192501 | 81 | 234 | 8.7 | 20.9 | 0.00 | 0.00 | 0.00 | 74 | 1003.9 |
| 20260505192000 | 81 | 217 | 8.7 | 19.1 | 0.00 | 0.00 | 0.00 | 73 | 1004.0 |
| 20260505191606 | 81 | 205 | 7.8 | 18.2 | 0.00 | 0.00 | 0.00 | 73 | 1004.0 |
| 20260505191100 | 81 | 196 | 8.7 | 18.2 | 0.00 | 0.00 | 0.00 | 73 | 1004.0 |
| 20260505190558 | 81 | 220 | 5.2 | 17.4 | 0.00 | 0.00 | 0.00 | 74 | 1003.9 |
| 20260505190057 | 81 | 184 | 7.8 | 18.2 | 0.00 | 0.00 | 0.00 | 74 | 1004.0 |
| 20260505185557 | 80 | 227 | 5.2 | 18.2 | 0.00 | 0.00 | 0.00 | 75 | 1003.9 |
| 20260505185055 | 80 | 231 | 7.0 | 19.1 | 0.00 | 0.00 | 0.00 | 75 | 1004.0 |
| 20260505184556 | 80 | 202 | 7.8 | 22.6 | 0.00 | 0.00 | 0.00 | 75 | 1004.1 |
| 20260505184052 | 79 | 227 | 8.7 | 22.6 | 0.00 | 0.00 | 0.00 | 75 | 1004.1 |
| 20260505183552 | 79 | 243 | 8.7 | 19.1 | 0.00 | 0.00 | 0.00 | 75 | 1004.2 |
| 20260505183052 | 79 | 214 | 7.8 | 20.0 | 0.00 | 0.00 | 0.00 | 75 | 1004.2 |
| 20260505182550 | 79 | 214 | 7.8 | 20.0 | 0.00 | 0.00 | 0.00 | 75 | 1004.3 |
| 20260505182050 | 79 | 248 | 9.6 | 19.1 | 0.00 | 0.00 | 0.00 | 75 | 1004.3 |
| 20260505181549 | 79 | 228 | 9.6 | 19.1 | 0.00 | 0.00 | 0.00 | 76 | 1004.3 |
| 20260505181049 | 79 | 248 | 8.7 | 19.1 | 0.00 | 0.00 | 0.00 | 76 | 1004.3 |
| 20260505180546 | 79 | 206 | 6.1 | 19.1 | 0.00 | 0.00 | 0.00 | 78 | 1004.4 |
| 20260505180046 | 78 | 192 | 7.8 | 18.2 | 0.00 | 0.00 | 0.00 | 77 | 1004.4 |
| 20260505175545 | 78 | 186 | 7.0 | 18.2 | 0.00 | 0.00 | 0.00 | 77 | 1004.4 |
| 20260505175045 | 78 | 187 | 7.8 | 21.7 | 0.00 | 0.00 | 0.00 | 78 | 1004.5 |
| 20260505174542 | 77 | 211 | 8.7 | 21.7 | 0.00 | 0.00 | 0.00 | 78 | 1004.5 |
| 20260505174045 | 77 | 205 | 8.7 | 20.0 | 0.00 | 0.00 | 0.00 | 79 | 1004.7 |
| 20260505173542 | 77 | 221 | 7.8 | 20.9 | 0.00 | 0.00 | 0.00 | 79 | 1004.7 |
| 20260505173041 | 77 | 194 | 8.7 | 20.9 | 0.00 | 0.00 | 0.00 | 78 | 1004.7 |
| 20260505172541 | 77 | 202 | 6.1 | 19.1 | 0.00 | 0.00 | 0.00 | 79 | 1004.7 |
| 20260505172040 | 77 | 211 | 6.1 | 21.7 | 0.00 | 0.00 | 0.00 | 79 | 1004.6 |
| 20260505171547 | 77 | 209 | 10.4 | 21.7 | 0.00 | 0.00 | 0.00 | 79 | 1004.5 |
| 20260505171040 | 77 | 210 | 7.0 | 19.1 | 0.00 | 0.00 | 0.00 | 80 | 1004.4 |
| 20260505170539 | 77 | 205 | 9.6 | 19.1 | 0.00 | 0.00 | 0.00 | 79 | 1004.5 |
| 20260505170040 | 77 | 217 | 7.0 | 17.4 | 0.00 | 0.00 | 0.00 | 80 | 1004.6 |
| 20260505165539 | 77 | 193 | 10.4 | 24.3 | 0.00 | 0.00 | 0.00 | 79 | 1004.6 |
| 20260505165038 | 76 | 212 | 8.7 | 24.3 | 0.00 | 0.00 | 0.00 | 79 | 1004.5 |
| 20260505164541 | 76 | 198 | 5.2 | 24.3 | 0.00 | 0.00 | 0.00 | 80 | 1004.5 |
| 20260505164036 | 76 | 227 | 9.6 | 24.3 | 0.00 | 0.00 | 0.00 | 80 | 1004.6 |
| 20260505163536 | 76 | 209 | 7.8 | 19.1 | 0.00 | 0.00 | 0.00 | 81 | 1004.7 |
| 20260505163040 | 76 | 215 | 7.8 | 18.2 | 0.00 | 0.00 | 0.00 | 80 | 1004.8 |
| 20260505162534 | 76 | 215 | 7.8 | 21.7 | 0.00 | 0.00 | 0.00 | 81 | 1004.8 |
| 20260505162034 | 76 | 232 | 8.7 | 21.7 | 0.00 | 0.00 | 0.00 | 80 | 1004.8 |
| 20260505161534 | 76 | 252 | 8.7 | 19.1 | 0.00 | 0.00 | 0.00 | 81 | 1004.9 |
| 20260505161034 | 75 | 175 | 8.7 | 24.3 | 0.00 | 0.00 | 0.00 | 81 | 1004.7 |
| 20260505160533 | 75 | 236 | 10.4 | 25.2 | 0.00 | 0.00 | 0.00 | 82 | 1004.7 |
| 20260505153034 | 74 | 188 | 10.4 | 19.1 | 0.00 | 0.00 | 0.00 | 82 | 1004.8 |
| 20260505152527 | 74 | 218 | 7.8 | 20.9 | 0.00 | 0.00 | 0.00 | 83 | 1004.9 |
| 20260505152035 | 74 | 193 | 11.3 | 21.7 | 0.00 | 0.00 | 0.00 | 83 | 1004.8 |
| 20260505151528 | 74 | 246 | 12.2 | 21.7 | 0.00 | 0.00 | 0.00 | 82 | 1004.6 |
| 20260505151026 | 74 | 236 | 11.3 | 23.5 | 0.00 | 0.00 | 0.00 | 82 | 1004.6 |
| 20260505150527 | 74 | 226 | 8.7 | 23.5 | 0.00 | 0.00 | 0.00 | 82 | 1004.7 |
| 20260505140516 | 73 | 185 | 7.0 | 20.0 | 0.00 | 0.00 | 0.00 | 84 | 1004.6 |
| 20260505125010 | 71 | 184 | 5.2 | 13.9 | 0.00 | 0.00 | 0.00 | 86 | 1004.3 |
| 20260505124509 | 71 | 173 | 6.1 | 10.4 | 0.00 | 0.00 | 0.00 | 87 | 1004.2 |
| 20260505124008 | 71 | 217 | 5.2 | 11.3 | 0.00 | 0.00 | 0.00 | 87 | 1004.2 |
| 20260505123508 | 71 | 173 | 6.1 | 15.6 | 0.00 | 0.00 | 0.00 | 87 | 1004.1 |
| 20260505123007 | 71 | 193 | 7.8 | 15.6 | 0.00 | 0.00 | 0.00 | 87 | 1004.0 |
| 20260505122506 | 71 | 225 | 5.2 | 9.6 | 0.00 | 0.00 | 0.00 | 87 | 1004.0 |
| 20260505122005 | 71 | 225 | 3.5 | 13.9 | 0.00 | 0.00 | 0.00 | 88 | 1004.1 |
| 20260505121505 | 71 | 202 | 5.2 | 13.9 | 0.00 | 0.00 | 0.00 | 88 | 1004.1 |
| 20260505121005 | 71 | 204 | 6.1 | 16.5 | 0.00 | 0.00 | 0.00 | 88 | 1003.9 |
| 20260505120503 | 71 | 237 | 7.8 | 16.5 | 0.00 | 0.00 | 0.00 | 88 | 1003.9 |
| 20260505120005 | 71 | 245 | 4.3 | 15.6 | 0.00 | 0.00 | 0.00 | 88 | 1004.0 |
| 20260505115503 | 71 | 209 | 7.8 | 13.0 | 0.00 | 0.00 | 0.00 | 88 | 1003.9 |
| 20260505115003 | 71 | 218 | 7.8 | 17.4 | 0.00 | 0.00 | 0.00 | 88 | 1003.9 |
| 20260505114503 | 71 | 217 | 4.3 | 17.4 | 0.00 | 0.00 | 0.00 | 88 | 1003.9 |
| 20260505114003 | 71 | 221 | 6.1 | 12.2 | 0.00 | 0.00 | 0.00 | 88 | 1003.9 |
| 20260505113502 | 70 | 215 | 6.1 | 13.0 | 0.00 | 0.00 | 0.00 | 88 | 1003.9 |
| 20260505113001 | 70 | 210 | 5.2 | 17.4 | 0.00 | 0.00 | 0.00 | 88 | 1003.8 |
| 20260505112501 | 70 | 205 | 7.0 | 17.4 | 0.00 | 0.00 | 0.00 | 88 | 1003.8 |
| 20260505112003 | 70 | 217 | 7.8 | 15.6 | 0.00 | 0.00 | 0.00 | 88 | 1003.6 |
| 20260505111504 | 70 | 140 | 7.0 | 13.0 | 0.00 | 0.00 | 0.00 | 88 | 1003.5 |
| 20260505111002 | 70 | 188 | 8.7 | 16.5 | 0.00 | 0.00 | 0.00 | 88 | 1003.5 |
| 20260505110502 | 70 | 242 | 7.0 | 16.5 | 0.00 | 0.00 | 0.00 | 88 | 1003.6 |